Hourly Weather Roundup
Issued by NWS Central Illinois

Home | Current Version | Previous Version | Text Only | Print | Product List | Glossary On
Versions: 1 2 3 4 5 6 7 8 9 10 11 12 13 14 15 16 17 18 19 20 21 22 23 24 25 26 27 28 29 30 31 32 33 34 35 36 37 38 39 40 41 42 43 44 45 46 47 48 49 50
186
NZUS43 KILX 221810
HWRILX

Area Weather Roundup
National Weather Service Lincoln IL
100 PM CDT SAT APR 22 2017

NOTE:  "FAIR" indicates few or no clouds below 12,000 feet, with
       no sigificant weather and/or obstructions to visibility.


CITY           SKY/WX    TMP DP  RH WIND       PRES   REMARKS
Bloomington    MOSUNNY   59  33  37 E23       30.15F
6HR MIN TEMP:  41; 6HR MAX TEMP:  59;

Champaign      PTSUNNY   58  35  42 NE22G30   30.11F
6HR MIN TEMP:  44; 6HR MAX TEMP:  58;

Danville       CLOUDY    57  34  42 E13       30.10S
6HR MIN TEMP:  42; 6HR MAX TEMP:  57;

Decatur        CLOUDY    55  38  52 NE24      30.11S
6HR MIN TEMP:  44; 6HR MAX TEMP:  55;

Effingham      PTSUNNY   54  42  64 NE13G20   30.10R
6HR MIN TEMP:  46; 6HR MAX TEMP:  54;

Flora          CLOUDY    54  42  65 NE14G20   30.06F
6HR MIN TEMP:  47; 6HR MAX TEMP:  54; 6HR PCP:  0.01;

Galesburg      SUNNY     59  37  44 NE15G22   30.17F
6HR MIN TEMP:  42; 6HR MAX TEMP:  59;

Jacksonville   MOSUNNY   58  37  45 NE24      30.12F
6HR MIN TEMP:  44; 6HR MAX TEMP:  58;

Lacon          SUNNY     60  36  40 NE13G20   30.17S
6HR MIN TEMP:  42; 6HR MAX TEMP:  60;

Lawrenceville  CLOUDY    54  43  66 NE16G22   30.07S
6HR MIN TEMP:  47; 6HR MAX TEMP:  54; 6HR PCP:  0.01;

Litchfield     CLOUDY    51  39  63 NE18      30.09F
6HR MIN TEMP:  44; 6HR MAX TEMP:  51;

$$


CITY           SKY/WX    TMP DP  RH WIND       PRES   REMARKS
Lincoln        MOSUNNY   58  39  49 E16G23    30.14S
6HR MIN TEMP:  44; 6HR MAX TEMP:  58;

Macomb         SUNNY     59  37  42 E13G21    30.19S
6HR MIN TEMP:  42; 6HR MAX TEMP:  59;

Mattoon        CLOUDY    51  38  60 NE22G30   30.09S
6HR MIN TEMP:  44; 6HR MAX TEMP:  51;

Mt Carmel AP   CLOUDY    53  43  67 NE13      30.05S
6HR MIN TEMP:  46; 6HR MAX TEMP:  53;

Olney-Noble AP CLOUDY    53  44  73 NE12G18   30.06F
Paris AP       CLOUDY    52  37  56 E20       30.10F
6HR MIN TEMP:  44; 6HR MAX TEMP:  52;

Peoria         SUNNY     59  37  44 E14G24    30.17F
6HR MIN TEMP:  44; 6HR MAX TEMP:  59;

Pontiac        MOSUNNY   56  33  42 E17       30.17F
6HR MIN TEMP:  43; 6HR MAX TEMP:  56;

Rantoul        MOSUNNY   60  35  39 NE17G32   30.12F
6HR MIN TEMP:  44; 6HR MAX TEMP:  61;

Robinson       CLOUDY    52  42  67 NE20G25   30.08S
6HR MIN TEMP:  45; 6HR MAX TEMP:  53;

Springfield    MOSUNNY   62  39  42 NE24G31   30.11F
6HR MIN TEMP:  46; 6HR MAX TEMP:  62;

Taylorville    PTSUNNY   53  37  53 NE20G28   30.10F
6HR MIN TEMP:  44; 6HR MAX TEMP:  53;

$$

...REGIONAL REPORTS...


CITY           SKY/WX    TMP DP  RH WIND       PRES   REMARKS
Chicago O`Hare PTSUNNY   56  26  31 NE13      30.20F
Kankakee       PTSUNNY   56  31  38 NE15G23   30.17S
Moline         SUNNY     60  33  36 E13G23    30.20F
Mount Sterling MOSUNNY   56  36  47 E17G24    30.14F
Mount Vernon   CLOUDY    52  43  71 NE15      30.05S
Pittsfield     MOSUNNY   57  38  49 NE16G22   30.13S
Quincy         PTSUNNY   58  36  43 NE16G24   30.13F
Rockford       MOSUNNY   61  32  33 NE14      30.21F
$$


CITY           SKY/WX    TMP DP  RH WIND       PRES   REMARKS
Burlington     SUNNY     59  39  47 NE13G24   30.17F
Cedar Rapids   SUNNY     60  30  32 NE8G18    30.22S
Des Moines     PTSUNNY   63  32  31 NE13G21   30.23F
Kirksville     SUNNY     62  33  33 NE21G28   30.16F
Ottumwa        SUNNY     62  26  25 NE14G23   30.20F
St Louis       CLOUDY    55  39  54 NE16G26   30.08F
$$


CITY           SKY/WX    TMP DP  RH WIND       PRES   REMARKS
Terre Haute    LGT RAIN  52  37  56 E18G28    30.09S
Evansville     CLOUDY    53  46  77 NE16G23   30.03S
Indianapolis   PTSUNNY   51  36  56 NE16G26   30.09F
Lafayette      MOSUNNY   56  38  50 NE18      30.12F
Madison        MOSUNNY   58  27  30 VRB5      30.22S
Milwaukee      MOSUNNY   53  27  36 NE8       30.22F
$$






USA.gov is the U.S. government's official web portal to all federal, state and local government web resources and services.